User: anonymous   Login
Location: B
(0.0000°N, 0.0000°E)
Time: 09:09:09
(UTC+02:00)
Language:

Cosmos 1025 Rocket - Orbit

View from above orbital plane
View from above orbital plane
View from above satellite
View from above satellite

Ground track
Ground track

The orbit data is extracted from the following two-line orbital elements,

1 10974U 78067B   16121.18427967  .00000141  00000-0  13000-4 0  9998
2 10974  82.4844 200.3155 0015884 271.9737  87.9661 14.87148679 46171
Epoch (UTC): 30 April 2016 04:25:21
Eccentricity: 0.0015884
inclination: 82.4844°
perigee height: 596 km
apogee height: 618 km
right ascension of ascending node: 200.3155°
argument of perigee: 271.9737°
revolutions per day: 14.87148679
mean anomaly at epoch: 87.9661°
orbit number at epoch: 4617

The dashed part of the orbit path shows where the satellite is in the earth's shadow,  

DLR